Time,TemperatureF,DewpointF,PressureIn,WindDirection,WindDirectionDegrees,WindSpeedMPH,WindSpeedGustMPH,Humidity,HourlyPrecipIn,Conditions,Clouds,dailyrainin,SolarRadiationWatts/m^2,SoftwareType,DateUTC
2013-03-19 00:00:00,25.0,24.0,-100.00,WSW,247,12.0,-999.0,94,-99.99,,,-99.99,0.000000,,2013-03-19 05:00:00,
2013-03-19 00:43:00,25.0,24.0,-100.00,WSW,247,12.0,-999.0,94,-99.99,,,-99.99,0.000000,,2013-03-19 05:43:00,
2013-03-19 00:52:00,25.0,24.0,-100.00,WSW,247,12.0,-999.0,94,-99.99,,,-99.99,0.000000,,2013-03-19 05:52:00,
2013-03-19 01:00:00,21.0,19.0,-100.00,WSW,247,15.0,-999.0,90,-99.99,,,-99.99,0.000000,,2013-03-19 06:00:00,
2013-03-19 01:42:00,21.0,19.0,-100.00,WSW,247,15.0,-999.0,90,-99.99,,,-99.99,0.000000,,2013-03-19 06:42:00,
2013-03-19 01:52:00,21.0,19.0,-100.00,WSW,247,15.0,-999.0,90,-99.99,,,-99.99,0.000000,,2013-03-19 06:52:00,
2013-03-19 02:00:00,19.0,16.0,-100.00,WSW,247,14.0,-999.0,89,-99.99,,,-99.99,0.000000,,2013-03-19 07:00:00,
2013-03-19 02:42:00,19.0,16.0,-100.00,WSW,247,14.0,-999.0,89,-99.99,,,-99.99,0.000000,,2013-03-19 07:42:00,
2013-03-19 02:53:00,19.0,16.0,-100.00,WSW,247,14.0,-999.0,89,-99.99,,,-99.99,0.000000,,2013-03-19 07:53:00,
2013-03-19 03:00:00,18.0,15.0,-100.00,West,270,14.0,-999.0,89,-99.99,,,-99.99,0.000000,,2013-03-19 08:00:00,
2013-03-19 03:43:00,18.0,15.0,-100.00,West,270,14.0,-999.0,89,-99.99,,,-99.99,0.000000,,2013-03-19 08:43:00,
2013-03-19 03:52:00,18.0,15.0,-100.00,West,270,14.0,-999.0,89,-99.99,,,-99.99,0.000000,,2013-03-19 08:52:00,
2013-03-19 04:00:00,17.0,14.0,-100.00,West,270,15.0,-999.0,88,-99.99,,,-99.99,0.000000,,2013-03-19 09:00:00,
2013-03-19 04:43:00,17.0,14.0,-100.00,West,270,15.0,-999.0,88,-99.99,,,-99.99,0.000000,,2013-03-19 09:43:00,
2013-03-19 04:53:00,17.0,14.0,-100.00,West,270,15.0,-999.0,88,-99.99,,,-99.99,0.000000,,2013-03-19 09:53:00,
2013-03-19 05:00:00,16.0,13.0,-100.00,WSW,247,14.0,-999.0,87,-99.99,,,-99.99,0.000000,,2013-03-19 10:00:00,
2013-03-19 05:42:00,16.0,13.0,-100.00,WSW,247,14.0,-999.0,87,-99.99,,,-99.99,0.000000,,2013-03-19 10:42:00,
2013-03-19 05:53:00,16.0,13.0,-100.00,WSW,247,14.0,-999.0,87,-99.99,,,-99.99,0.000000,,2013-03-19 10:53:00,
2013-03-19 06:00:00,16.0,13.0,-100.00,WSW,247,15.0,-999.0,86,-99.99,,,-99.99,0.000000,,2013-03-19 11:00:00,
2013-03-19 06:43:00,16.0,13.0,-100.00,WSW,247,15.0,-999.0,86,-99.99,,,-99.99,0.000000,,2013-03-19 11:43:00,
2013-03-19 06:52:00,16.0,13.0,-100.00,WSW,247,15.0,-999.0,86,-99.99,,,-99.99,0.000000,,2013-03-19 11:52:00,
2013-03-19 08:00:00,16.0,13.0,-100.00,WSW,247,16.0,-999.0,85,-99.99,,,-99.99,37.119999,,2013-03-19 13:00:00,
2013-03-19 08:42:00,16.0,13.0,-100.00,WSW,247,16.0,-999.0,85,-99.99,,,-99.99,37.119999,,2013-03-19 13:42:00,
2013-03-19 08:53:00,16.0,13.0,-100.00,WSW,247,16.0,-999.0,85,-99.99,,,-99.99,37.119999,,2013-03-19 13:53:00,
2013-03-19 09:00:00,16.0,13.0,-100.00,West,270,17.0,-999.0,86,-99.99,,,-99.99,160.080002,,2013-03-19 14:00:00,
2013-03-19 09:42:00,16.0,13.0,-100.00,West,270,17.0,-999.0,86,-99.99,,,-99.99,160.080002,,2013-03-19 14:42:00,
2013-03-19 09:52:00,16.0,13.0,-100.00,West,270,17.0,-999.0,86,-99.99,,,-99.99,160.080002,,2013-03-19 14:52:00,
2013-03-19 11:00:00,18.0,12.0,-100.00,West,270,14.0,-999.0,76,-99.99,,,-99.99,385.119995,,2013-03-19 16:00:00,
2013-03-19 11:44:00,18.0,12.0,-100.00,West,270,14.0,-999.0,76,-99.99,,,-99.99,385.119995,,2013-03-19 16:44:00,
2013-03-19 11:54:00,18.0,12.0,-100.00,West,270,14.0,-999.0,76,-99.99,,,-99.99,385.119995,,2013-03-19 16:54:00,
2013-03-19 12:00:00,21.0,12.0,-100.00,West,270,15.0,-999.0,67,-99.99,,,-99.99,663.520020,,2013-03-19 17:00:00,
2013-03-19 12:44:00,21.0,12.0,-100.00,West,270,15.0,-999.0,67,-99.99,,,-99.99,663.520020,,2013-03-19 17:44:00,
2013-03-19 12:53:00,21.0,12.0,-100.00,West,270,15.0,-999.0,67,-99.99,,,-99.99,663.520020,,2013-03-19 17:53:00,
2013-03-19 13:00:00,22.0,12.0,-100.00,West,270,16.0,-999.0,64,-99.99,,,-99.99,644.960022,,2013-03-19 18:00:00,
2013-03-19 13:44:00,22.0,12.0,-100.00,West,270,16.0,-999.0,64,-99.99,,,-99.99,644.960022,,2013-03-19 18:44:00,
2013-03-19 13:53:00,22.0,12.0,-100.00,West,270,16.0,-999.0,64,-99.99,,,-99.99,644.960022,,2013-03-19 18:53:00,
2013-03-19 14:00:00,24.0,13.0,-100.00,West,270,17.0,-999.0,62,-99.99,,,-99.99,617.119995,,2013-03-19 19:00:00,
2013-03-19 14:43:00,24.0,13.0,-100.00,West,270,17.0,-999.0,62,-99.99,,,-99.99,617.119995,,2013-03-19 19:43:00,
2013-03-19 14:53:00,24.0,13.0,-100.00,West,270,17.0,-999.0,62,-99.99,,,-99.99,617.119995,,2013-03-19 19:53:00,
2013-03-19 15:00:00,26.0,14.0,-100.00,West,270,15.0,-999.0,60,-99.99,,,-99.99,609.000000,,2013-03-19 20:00:00,
2013-03-19 15:43:00,26.0,14.0,-100.00,West,270,15.0,-999.0,60,-99.99,,,-99.99,609.000000,,2013-03-19 20:43:00,
2013-03-19 15:53:00,26.0,14.0,-100.00,West,270,15.0,-999.0,60,-99.99,,,-99.99,609.000000,,2013-03-19 20:53:00,
2013-03-19 16:00:00,28.0,15.0,-100.00,WNW,292,12.0,-999.0,58,-99.99,,,-99.99,530.119995,,2013-03-19 21:00:00,
2013-03-19 16:43:00,28.0,15.0,-100.00,WNW,292,12.0,-999.0,58,-99.99,,,-99.99,530.119995,,2013-03-19 21:43:00,
2013-03-19 16:53:00,28.0,15.0,-100.00,WNW,292,12.0,-999.0,58,-99.99,,,-99.99,530.119995,,2013-03-19 21:53:00,
2013-03-19 17:00:00,29.0,16.0,-100.00,WNW,292,13.0,-999.0,58,-99.99,,,-99.99,305.079987,,2013-03-19 22:00:00,
2013-03-19 17:44:00,29.0,16.0,-100.00,WNW,292,13.0,-999.0,58,-99.99,,,-99.99,305.079987,,2013-03-19 22:44:00,
2013-03-19 17:53:00,29.0,16.0,-100.00,WNW,292,13.0,-999.0,58,-99.99,,,-99.99,305.079987,,2013-03-19 22:53:00,
2013-03-19 18:00:00,29.0,15.0,-100.00,WNW,292,13.0,-999.0,55,-99.99,,,-99.99,240.119995,,2013-03-19 23:00:00,
2013-03-19 18:43:00,29.0,15.0,-100.00,WNW,292,13.0,-999.0,55,-99.99,,,-99.99,240.119995,,2013-03-19 23:43:00,
2013-03-19 18:53:00,29.0,15.0,-100.00,WNW,292,13.0,-999.0,55,-99.99,,,-99.99,240.119995,,2013-03-19 23:53:00,
2013-03-19 19:00:00,28.0,13.0,-100.00,WNW,292,14.0,-999.0,53,-99.99,,,-99.99,62.639999,,2013-03-20 00:00:00,
2013-03-19 19:43:00,28.0,13.0,-100.00,WNW,292,14.0,-999.0,53,-99.99,,,-99.99,62.639999,,2013-03-20 00:43:00,
2013-03-19 19:52:00,28.0,13.0,-100.00,WNW,292,14.0,-999.0,53,-99.99,,,-99.99,62.639999,,2013-03-20 00:52:00,
2013-03-19 20:00:00,26.0,11.0,-100.00,WNW,292,13.0,-999.0,53,-99.99,,,-99.99,1.160000,,2013-03-20 01:00:00,
2013-03-19 20:43:00,26.0,11.0,-100.00,WNW,292,13.0,-999.0,53,-99.99,,,-99.99,1.160000,,2013-03-20 01:43:00,
2013-03-19 20:53:00,26.0,11.0,-100.00,WNW,292,13.0,-999.0,53,-99.99,,,-99.99,1.160000,,2013-03-20 01:53:00,
2013-03-19 21:00:00,24.0,10.0,-100.00,WNW,292,11.0,-999.0,54,-99.99,,,-99.99,0.000000,,2013-03-20 02:00:00,
2013-03-19 21:43:00,24.0,10.0,-100.00,WNW,292,11.0,-999.0,54,-99.99,,,-99.99,0.000000,,2013-03-20 02:43:00,
2013-03-19 21:53:00,24.0,10.0,-100.00,WNW,292,11.0,-999.0,54,-99.99,,,-99.99,0.000000,,2013-03-20 02:53:00,
2013-03-19 22:00:00,20.0,9.0,-100.00,West,270,7.0,-999.0,59,-99.99,,,-99.99,0.000000,,2013-03-20 03:00:00,
2013-03-19 22:43:00,20.0,9.0,-100.00,West,270,7.0,-999.0,59,-99.99,,,-99.99,0.000000,,2013-03-20 03:43:00,
2013-03-19 22:53:00,20.0,9.0,-100.00,West,270,7.0,-999.0,59,-99.99,,,-99.99,0.000000,,2013-03-20 03:53:00,
2013-03-19 23:00:00,18.0,8.0,-100.00,West,270,6.0,-999.0,62,-99.99,,,-99.99,0.000000,,2013-03-20 04:00:00,
2013-03-19 23:43:00,18.0,8.0,-100.00,West,270,6.0,-999.0,62,-99.99,,,-99.99,0.000000,,2013-03-20 04:43:00,
2013-03-19 23:53:00,18.0,8.0,-100.00,West,270,6.0,-999.0,62,-99.99,,,-99.99,0.000000,,2013-03-20 04:53:00,